Regional Weather Roundup
Issued by NWS Cleveland, OH

Home | Current Version | Previous Version | Text Only | Print | Product List | Glossary Off
Versions: 1 2 3 4 5 6 7 8 9 10 11 12 13 14 15 16 17 18 19 20 21 22 23 24 25 26 27 28 29 30 31 32 33 34 35 36 37 38 39 40 41 42 43 44 45 46 47 48 49 50

000
ASUS41 KCLE 011010
RWRCLE
OHIO REGIONAL WEATHER ROUNDUP
NATIONAL WEATHER SERVICE WILMINGTON, OH
600 AM EDT WED JUL 01 2015

NOTE: "FAIR" INDICATES FEW OR NO CLOUDS BELOW 12,000 FEET WITH NO
SIGNIFICANT WEATHER AND/OR OBSTRUCTIONS TO VISIBILITY.

OHZ001>008-015>018-024>027-034-035-043-044-011100-
   NORTHWEST OHIO

CITY           SKY/WX    TMP DP  RH WIND       PRES   REMARKS
DEFIANCE       CLOUDY    61  58  90 W6        29.88R
FINDLAY        CLOUDY    61  58  90 W10       29.86R
TOLEDO EXPRESS PTCLDY    60  59  96 W7        29.84R
TOLEDO EXEC    CLOUDY    62  59  90 SW7       29.85R
LIMA           CLEAR     58  57  97 W8        29.88R
$$

OHZ009>014-019>023-028>033-038-089-011100-
   NORTHEAST OHIO

CITY           SKY/WX    TMP DP  RH WIND       PRES   REMARKS
CLE-HOPKINS    CLOUDY    63  61  93 W10       29.83R
CLE-LAKEFRONT  LGT RAIN  65  62  90 SW9       29.80R
CUY CO. ARPT   NOT AVBL
LORAIN-ELYRIA  CLOUDY    62  60  93 W8        29.83R
ASHTABULA      CLOUDY    63  62  97 SW8       29.80R
AKRON-CANTON   CLOUDY    63  60  90 SW7       29.84R FOG
WOOSTER        MOCLDY    61  59  93 W7        29.86R FOG
MANSFIELD      CLOUDY    60  60 100 W8        29.86R
YOUNGSTOWN     CLOUDY    62  61  96 SW8       29.82R FOG
$$

OHZ042-051>053-060>062-070>072-077>081-011100-
  SOUTHWEST OHIO

CITY           SKY/WX    TMP DP  RH WIND       PRES   REMARKS
CINC-COVINGTON FOG       61  61 100 CALM      29.90R VSB 1/8
CINC-LUNKEN    FOG       58  58 100 CALM      29.90S VSB 1/4
HAMILTON       PTCLDY    58  58 100 CALM      29.90S FOG
DAYTON         MOCLDY    63  59  87 NW8       29.90R
WRIGHT-PAT AFB CLEAR     61  60  99 S2        29.89R
DAYTON GENERAL CLOUDY    62  61  96 CALM      29.89R FOG
WILMINGTON     CLEAR     59  57  93 SW5       29.90R FOG
$$

OHZ036-037-039>041-045>050-054>059-063>069-073>076-082>088-011100-
  CENTRAL AND SOUTHEAST OHIO

CITY           SKY/WX    TMP DP  RH WIND       PRES   REMARKS
COLUMBUS       FOG       59  59 100 CALM      29.87R VSB 3/4
OSU AIRPORT    CLEAR     60  59  96 W5        29.88R FOG
BOLTON FIELD   CLEAR     59  59 100 SW3       29.89R FOG
RICKENBACK AFB FOG       57  57  99 CALM      29.87S VSB 3/4
NEWARK         FOG       59  57  93 CALM      29.87R VSB 3/4
MARION         PTCLDY    60  57  89 W7        29.87R FOG
LANCASTER      MOCLDY    62  59  90 SW3       29.88R FOG
ZANESVILLE     CLOUDY    62  59  90 SW5       29.88R FOG
NEW PHILLY     CLOUDY    62  60  93 SW3       29.86R FOG
$$


USA.gov is the U.S. government's official web portal to all federal, state and local government web resources and services.